Pagina principale
METAR-TAF:

METAR-TAF

Aeroporti :

Meiringen, Svizzera

latitudine: 46-44-25N, longitudine: 8-06-36E, altezza: 577 m

Osservazione

Il bollettino è stato emesso 23 minuti fa, alle 14:50 UTC
Vento 3 kt da est
Temperature -2°C
Umidità 100%
Pressione 1016 hPa
Visibilità 10 km o più

METAR: LSMM 061450Z AUTO 10003KT 9999NDV NCD M02/M02 Q1016 RMK

Ora: 16:13 (15:13 UTC)


TAF: mancante

Osservazioni e previsioni meteorologiche di più di 4000 aeroporti (messaggi METAR e TAF).

Le stazioni disponibili sono rappresentate dai dischi gialli e rossi sulla carta.

Puntare il mouse per vedere il nome della stazione.

Clicca sopra per visualizzare le osservazioni e previsioni meteorologiche.

Per cambiare la mappa : fare clic sui pulsanti verdi con una croce nera per ingrandire, il pulsante verde con un trattino per diminuire, o sulla freccia verde per le mappe adiacenti.


METAR-TAF: